User: anonymous   Login
Location: Nag� el Ma?a??a
(24.0667°N, 32.8833°E)
Time: 10:30:10
(UTC+00:00)
Language:

Cosmos 1862 Rocket - Orbit

View from above orbital plane
View from above orbital plane
View from above satellite
View from above satellite

Ground track
Ground track

The orbit data is extracted from the following two-line orbital elements,

1 18153U 87055B   21340.62714027  .00000120  00000-0  11654-4 0  9996
2 18153  82.5006  10.7611 0023106 101.3844 258.9968 14.83362476839416
Epoch (UTC): 06 December 2021 15:03:04
Eccentricity: 0.0023106
inclination: 82.5006°
perigee height: 602 km
apogee height: 635 km
right ascension of ascending node: 10.7611°
argument of perigee: 101.3844°
revolutions per day: 14.83362476
mean anomaly at epoch: 258.9968°
orbit number at epoch: 83941

The dashed part of the orbit path shows where the satellite is in the earth's shadow,  

DLR